Location: Eaton Estates
(41.3089°N, 82.0057°W)
Time: 18:48:49
(UTC+00:00)

VELOX 1 - Visible Passes

Search period start: 28 March 2023 00:00
Search period end: 07 April 2023 00:00
Orbit: 618 x 633 km, 98.4° (Epoch: 28 March)

Date Brightness Start Highest point End Pass type
(mag) Time Alt. Az. Time Alt. Az. Time Alt. Az.
28 Mar ? 01:07:57 10° NNW 01:10:47 17° WNW 01:13:37 10° WSW visible
28 Mar ? 10:26:03 10° SE 10:30:05 39° ENE 10:34:08 10° N visible
29 Mar ? 01:28:10 10° NW 01:29:31 11° WNW 01:30:52 10° W visible
29 Mar ? 10:44:40 10° SSE 10:48:58 62° ENE 10:53:16 10° N visible
30 Mar ? 09:31:52 10° ENE 09:32:23 10° ENE 09:32:55 10° NE visible
31 Mar ? 00:27:39 10° N 00:31:46 43° WNW 00:35:50 10° SW visible
31 Mar ? 09:48:28 10° E 09:51:05 16° ENE 09:53:41 10° NNE visible
01 Apr ? 00:46:53 10° N 00:50:34 28° WNW 00:54:14 10° SW visible
01 Apr ? 10:06:21 10° ESE 10:09:48 24° ENE 10:13:16 10° NNE visible
02 Apr ? 01:06:19 10° NNW 01:09:18 18° WNW 01:12:16 10° WSW visible
02 Apr ? 10:24:35 10° SE 10:28:34 36° ENE 10:32:33 10° N visible
03 Apr ? 01:26:17 10° NW 01:27:58 12° WNW 01:29:39 10° W visible
05 Apr ? 00:25:54 10° N 00:30:02 46° WNW 00:34:10 10° SW visible
05 Apr ? 09:46:58 10° E 09:49:22 15° ENE 09:51:46 10° NNE visible
06 Apr ? 00:45:01 10° N 00:48:47 30° WNW 00:52:32 10° SW visible
06 Apr ? 10:04:40 10° ESE 10:08:00 22° ENE 10:11:21 10° NNE visible
